• en France
  • Liste des pays
  • À 7 jours
  • Température de l'eau
  • Carte satellitaire
  • Carte météo
  • Widgets météo
  • user-avatar
    Se connecter

    Météo par heure à Mitu

    Ce jour, 20 Février, Mardi

    Heure Température Précipitation Vent Pression Humidité
    00:00 +22°C° 0 mm 0 m/s 737 mmHg 77%
    01:00 +22°C° 0 mm 0 m/s 737 mmHg 79%
    02:00 +22°C° 0 mm 0 m/s 737 mmHg 81%
    03:00 +23°C° 0 mm 1 m/s 737 mmHg 82%
    04:00 +23°C° 0 mm 1 m/s 737 mmHg 84%
    05:00 +23°C° 0 mm 1 m/s 738 mmHg 81%
    06:00 +24°C° 0 mm 1 m/s 738 mmHg 79%
    07:00 +25°C° 0 mm 1 m/s 738 mmHg 71%
    08:00 +27°C° 0 mm 2 m/s 739 mmHg 63%
    09:00 +29°C° 0 mm 2 m/s 739 mmHg 55%
    10:00 +31°C° 0 mm 2 m/s 739 mmHg 47%
    11:00 +34°C° 0 mm 2 m/s 738 mmHg 44%
    12:00 +35°C° 0 mm 2 m/s 738 mmHg 41%
    13:00 +36°C° 0 mm 2 m/s 737 mmHg 39%
    14:00 +36°C° 0 mm 2 m/s 737 mmHg 40%
    15:00 +36°C° 0 mm 2 m/s 736 mmHg 41%
    16:00 +36°C° 0 mm 2 m/s 736 mmHg 43%
    17:00 +32°C° 0 mm 1 m/s 736 mmHg 51%
    18:00 +30°C° 0 mm 1 m/s 736 mmHg 60%
    19:00 +28°C° 0 mm 1 m/s 736 mmHg 68%
    20:00 +27°C° 0 mm 1 m/s 737 mmHg 70%
    21:00 +27°C° 0 mm 1 m/s 737 mmHg 72%
    22:00 +24°C° 0 mm 0 m/s 738 mmHg 73%
    23:00 +24°C° 0 mm 0 m/s 738 mmHg 75%

    Demain, 21 Février, Mercredi

    Heure Température Précipitation Vent Pression Humidité
    00:00 +23°C° 0 mm 0 m/s 738 mmHg 76%
    01:00 +23°C° 0 mm 0 m/s 738 mmHg 78%
    02:00 +23°C° 0 mm 0 m/s 737 mmHg 78%
    03:00 +24°C° 0 mm 1 m/s 737 mmHg 79%
    04:00 +24°C° 0 mm 1 m/s 737 mmHg 80%
    05:00 +24°C° 0 mm 1 m/s 738 mmHg 78%
    06:00 +24°C° 0 mm 1 m/s 738 mmHg 76%
    07:00 +25°C° 0 mm 1 m/s 739 mmHg 75%
    08:00 +27°C° 0 mm 2 m/s 739 mmHg 65%
    09:00 +29°C° 0 mm 2 m/s 739 mmHg 55%
    10:00 +33°C° 0 mm 3 m/s 740 mmHg 46%
    11:00 +34°C° 0 mm 3 m/s 739 mmHg 43%
    12:00 +35°C° 0 mm 2 m/s 738 mmHg 40%
    13:00 +36°C° 0 mm 2 m/s 737 mmHg 37%
    14:00 +36°C° 0 mm 2 m/s 737 mmHg 39%
    15:00 +36°C° 0 mm 2 m/s 736 mmHg 40%
    16:00 +36°C° 0 mm 2 m/s 735 mmHg 41%
    17:00 +32°C° 0 mm 1 m/s 736 mmHg 49%
    18:00 +30°C° 0 mm 1 m/s 736 mmHg 58%
    19:00 +26°C° 0 mm 0 m/s 737 mmHg 66%
    20:00 +25°C° 0 mm 0 m/s 737 mmHg 68%
    21:00 +25°C° 0 mm 0 m/s 738 mmHg 69%
    22:00 +24°C° 0 mm 0 m/s 738 mmHg 71%
    23:00 +24°C° 0 mm 0 m/s 738 mmHg 73%

    Après-demain, 22 Février, Jeudi

    Heure Température Précipitation Vent Pression Humidité
    00:00 +23°C° 0 mm 0 m/s 738 mmHg 75%
    01:00 +23°C° 0 mm 0 m/s 738 mmHg 77%
    02:00 +23°C° 0 mm 0 m/s 738 mmHg 77%
    03:00 +22°C° 0 mm 0 m/s 737 mmHg 78%
    04:00 +22°C° 0 mm 0 m/s 737 mmHg 78%
    05:00 +24°C° 0 mm 1 m/s 738 mmHg 77%
    06:00 +24°C° 0 mm 1 m/s 738 mmHg 75%
    07:00 +25°C° 0 mm 1 m/s 739 mmHg 73%
    08:00 +27°C° 0 mm 1 m/s 739 mmHg 63%
    09:00 +29°C° 0 mm 2 m/s 739 mmHg 52%
    10:00 +33°C° 0 mm 3 m/s 740 mmHg 42%
    11:00 +34°C° 0 mm 2 m/s 739 mmHg 39%
    12:00 +35°C° 0 mm 2 m/s 738 mmHg 37%
    13:00 +36°C° 0 mm 2 m/s 737 mmHg 34%
    14:00 +36°C° 0 mm 2 m/s 736 mmHg 35%
    15:00 +36°C° 0 mm 2 m/s 736 mmHg 36%
    16:00 +36°C° 0 mm 2 m/s 735 mmHg 37%
    17:00 +33°C° 0 mm 1 m/s 735 mmHg 45%
    18:00 +30°C° 0 mm 1 m/s 736 mmHg 53%
    19:00 +26°C° 0 mm 0 m/s 736 mmHg 61%
    20:00 +26°C° 0 mm 0 m/s 737 mmHg 63%
    21:00 +25°C° 0 mm 0 m/s 737 mmHg 65%
    22:00 +25°C° 0 mm 0 m/s 738 mmHg 67%
    23:00 +24°C° 0 mm 0 m/s 738 mmHg 69%

    23 Février, Vendredi

    Heure Température Précipitation Vent Pression Humidité
    00:00 +24°C° 0 mm 0 m/s 737 mmHg 72%
    01:00 +23°C° 0 mm 0 m/s 737 mmHg 74%
    02:00 +23°C° 0 mm 0 m/s 737 mmHg 76%
    03:00 +22°C° 0 mm 0 m/s 737 mmHg 79%
    04:00 +21°C° 0 mm 0 m/s 737 mmHg 81%
    05:00 +22°C° 0 mm 0 m/s 737 mmHg 80%
    06:00 +22°C° 0 mm 0 m/s 738 mmHg 80%
    07:00 +23°C° 0 mm 0 m/s 738 mmHg 79%
    08:00 +27°C° 0 mm 1 m/s 739 mmHg 67%
    09:00 +30°C° 0 mm 1 m/s 739 mmHg 55%
    10:00 +32°C° 0 mm 2 m/s 739 mmHg 43%
    11:00 +34°C° 0 mm 2 m/s 738 mmHg 40%
    12:00 +36°C° 0 mm 2 m/s 737 mmHg 36%
    13:00 +37°C° 0 mm 2 m/s 736 mmHg 33%
    14:00 +37°C° 0 mm 2 m/s 736 mmHg 34%
    15:00 +36°C° 0 mm 2 m/s 735 mmHg 35%
    16:00 +36°C° 0 mm 2 m/s 734 mmHg 36%
    17:00 +33°C° 0 mm 1 m/s 735 mmHg 44%
    18:00 +30°C° 0 mm 1 m/s 735 mmHg 52%
    19:00 +26°C° 0 mm 0 m/s 735 mmHg 60%
    20:00 +26°C° 0 mm 0 m/s 736 mmHg 62%
    21:00 +25°C° 0 mm 0 m/s 737 mmHg 64%
    22:00 +25°C° 0 mm 0 m/s 737 mmHg 66%
    23:00 +24°C° 0 mm 0 m/s 737 mmHg 68%

    24 Février, Samedi

    Heure Température Précipitation Vent Pression Humidité
    00:00 +24°C° 0 mm 0 m/s 737 mmHg 70%
    01:00 +24°C° 0 mm 0 m/s 736 mmHg 72%
    02:00 +23°C° 0,2 mm 0 m/s 736 mmHg 76%
    03:00 +22°C° 0,2 mm 0 m/s 736 mmHg 81%
    04:00 +22°C° 0,2 mm 0 m/s 736 mmHg 85%
    05:00 +22°C° 0 mm 0 m/s 737 mmHg 85%
    06:00 +22°C° 0 mm 0 m/s 737 mmHg 85%
    07:00 +23°C° 0 mm 0 m/s 738 mmHg 85%
    08:00 +27°C° 0 mm 1 m/s 738 mmHg 73%
    09:00 +30°C° 0 mm 1 m/s 738 mmHg 60%
    10:00 +32°C° 0 mm 2 m/s 739 mmHg 47%
    11:00 +35°C° 0 mm 2 m/s 738 mmHg 43%
    12:00 +36°C° 0 mm 2 m/s 737 mmHg 38%
    13:00 +37°C° 0 mm 2 m/s 736 mmHg 34%
    14:00 +37°C° 0 mm 2 m/s 735 mmHg 35%
    15:00 +35°C° 0 mm 1 m/s 735 mmHg 36%
    16:00 +35°C° 0 mm 1 m/s 734 mmHg 36%
    17:00 +33°C° 0 mm 1 m/s 735 mmHg 43%
    18:00 +31°C° 0 mm 1 m/s 735 mmHg 50%
    19:00 +26°C° 0 mm 0 m/s 736 mmHg 57%
    20:00 +26°C° 0 mm 0 m/s 736 mmHg 59%
    21:00 +25°C° 0 mm 0 m/s 737 mmHg 61%
    22:00 +25°C° 0 mm 0 m/s 737 mmHg 63%
    23:00 +24°C° 0 mm 0 m/s 737 mmHg 66%

    25 Février, Dimanche

    Heure Température Précipitation Vent Pression Humidité
    00:00 +24°C° 0 mm 0 m/s 737 mmHg 70%
    01:00 +23°C° 0 mm 0 m/s 736 mmHg 73%
    02:00 +23°C° 0 mm 0 m/s 736 mmHg 76%
    03:00 +22°C° 0 mm 0 m/s 736 mmHg 78%
    04:00 +22°C° 0 mm 0 m/s 736 mmHg 80%
    05:00 +22°C° 0,2 mm 0 m/s 737 mmHg 82%
    06:00 +23°C° 0,2 mm 0 m/s 738 mmHg 84%
    07:00 +23°C° 0,2 mm 0 m/s 738 mmHg 86%
    08:00 +25°C° 0,3 mm 0 m/s 738 mmHg 79%
    09:00 +29°C° 0,3 mm 1 m/s 739 mmHg 73%
    10:00 +31°C° 0,3 mm 1 m/s 739 mmHg 67%
    11:00 +33°C° 0,3 mm 1 m/s 738 mmHg 58%
    12:00 +34°C° 0,3 mm 1 m/s 737 mmHg 49%
    13:00 +36°C° 0,3 mm 1 m/s 737 mmHg 40%
    14:00 +35°C° 0 mm 1 m/s 736 mmHg 42%
    15:00 +35°C° 0 mm 1 m/s 736 mmHg 45%
    16:00 +34°C° 0 mm 1 m/s 735 mmHg 47%
    17:00 +32°C° 0 mm 1 m/s 735 mmHg 54%
    18:00 +30°C° 0 mm 1 m/s 736 mmHg 62%
    19:00 +28°C° 0 mm 1 m/s 736 mmHg 69%
    20:00 +28°C° 0 mm 1 m/s 736 mmHg 72%
    21:00 +27°C° 0 mm 1 m/s 737 mmHg 74%
    22:00 +27°C° 0 mm 1 m/s 737 mmHg 77%
    23:00 +24°C° 0 mm 0 m/s 737 mmHg 79%
    Voir plus